Total_Precipitation_Accumulation
1.36 1.77 1.94 2.05 2.35 2.54 2.70 2.65 2.77 3.03 3.25 3.62 3.59 3.74 4.11 4.47 4.62 4.81 4.85 4.71 4.57 4.53 4.38 4.28 4.30 4.13 3.99 3.79 3.65 3.53 3.41 3.09 2.85 2.75 2.40 1.93 1.66 1.53 1.43 1.41 1.39 1.35 1.40
1.26 1.70 1.92 2.24 2.45 2.56 2.77 2.88 2.95 3.31 3.79 4.35 4.85 5.22 5.53 5.53 5.69 5.69 5.59 5.29 5.07 4.90 4.69 4.65 4.51 4.26 4.08 3.86 3.65 3.52 3.43 3.15 2.96 2.94 2.86 2.27 1.82 1.43 1.13 1.15 1.18 1.20 1.28
1.35 1.57 1.80 2.09 2.34 2.53 2.76 2.95 3.27 3.85 4.67 5.16 5.60 6.14 6.45 6.20 5.95 5.69 5.62 5.53 5.43 5.29 5.08 4.96 4.64 4.38 4.10 3.79 3.51 3.33 3.26 3.17 3.06 2.89 2.97 2.59 2.08 1.64 1.29 1.09 1.01 1.08 1.21
1.36 1.55 1.76 2.02 2.32 2.66 2.78 2.99 3.54 4.23 4.87 5.39 5.98 6.54 6.81 6.87 6.70 6.18 5.70 5.28 4.97 4.70 4.53 4.46 4.25 3.98 3.69 3.48 3.21 3.01 2.91 3.01 2.89 2.78 2.59 2.41 2.12 1.88 1.57 1.25 1.09 1.07 1.12
1.33 1.49 1.69 1.86 2.02 2.34 2.79 3.14 3.70 4.34 4.97 5.65 6.36 6.80 7.06 7.06 6.68 5.90 5.15 4.64 4.32 3.99 3.70 3.58 3.46 3.28 3.07 2.88 2.79 2.74 2.64 2.60 2.51 2.39 2.31 2.24 2.12 1.86 1.63 1.40 1.19 1.14 1.14
1.23 1.29 1.48 1.62 1.91 2.23 2.60 3.08 3.40 3.99 4.66 5.23 5.77 5.95 6.12 6.08 5.69 5.25 4.77 4.36 3.82 3.32 2.91 2.70 2.59 2.48 2.35 2.31 2.31 2.32 2.29 2.26 2.24 2.20 2.11 2.04 2.02 1.88 1.76 1.53 1.34 1.32 1.23
1.18 1.39 1.65 1.61 1.85 2.15 2.53 2.95 3.34 3.71 4.19 4.69 5.16 5.40 5.56 5.43 4.96 4.51 4.08 3.63 3.13 2.70 2.34 2.13 2.06 2.00 1.95 1.92 1.97 2.00 1.97 1.93 1.96 1.96 1.91 1.89 1.86 1.81 1.78 1.81 1.68 1.43 1.19
1.23 1.32 1.47 1.54 1.78 2.01 2.27 2.65 2.98 3.33 3.53 3.74 4.10 4.35 4.50 4.39 4.04 3.54 3.05 2.74 2.48 2.19 1.96 1.79 1.71 1.62 1.52 1.51 1.59 1.66 1.71 1.68 1.73 1.76 1.82 1.79 1.73 1.68 1.64 1.68 1.75 1.70 1.49
1.11 1.18 1.30 1.44 1.63 1.92 2.27 2.54 2.65 2.84 2.99 3.16 3.24 3.27 3.37 3.27 3.01 2.70 2.39 2.11 1.86 1.63 1.48 1.38 1.31 1.26 1.22 1.25 1.34 1.41 1.37 1.37 1.44 1.53 1.63 1.67 1.70 1.71 1.65 1.66 1.71 1.78 1.73
1.13 1.14 1.22 1.35 1.46 1.54 1.87 2.18 2.21 2.31 2.37 2.41 2.48 2.47 2.48 2.36 2.26 2.10 1.91 1.66 1.50 1.34 1.22 1.13 1.07 1.06 1.04 1.05 1.06 1.12 1.12 1.10 1.14 1.26 1.38 1.46 1.54 1.67 1.69 1.74 1.76 1.77 1.77
1.28 1.22 1.23 1.25 1.34 1.42 1.55 1.79 1.96 1.97 2.01 2.08 2.02 1.91 1.94 1.91 1.88 1.79 1.68 1.56 1.48 1.38 1.23 1.08 1.05 1.01 0.97 0.92 0.93 0.94 0.94 0.99 1.01 1.03 1.11 1.22 1.28 1.38 1.46 1.51 1.53 1.62 1.66
1.25 1.17 1.13 1.08 1.14 1.28 1.36 1.46 1.64 1.69 1.69 1.69 1.69 1.73 1.74 1.72 1.67 1.52 1.39 1.27 1.15 1.05 0.97 0.90 0.90 0.85 0.82 0.81 0.80 0.77 0.76 0.78 0.81 0.84 0.91 0.98 1.02 1.10 1.13 1.20 1.27 1.33 1.41
1.39 1.26 1.14 1.07 1.11 1.21 1.24 1.27 1.39 1.55 1.57 1.50 1.48 1.57 1.54 1.47 1.39 1.31 1.23 1.13 1.00 0.95 0.93 0.88 0.81 0.76 0.72 0.70 0.67 0.66 0.63 0.61 0.63 0.68 0.74 0.81 0.83 0.86 0.86 0.91 0.96 1.04 1.16
1.47 1.29 1.21 1.16 1.16 1.21 1.19 1.20 1.25 1.34 1.43 1.45 1.46 1.44 1.39 1.32 1.29 1.17 0.99 0.91 0.84 0.88 0.93 0.85 0.76 0.67 0.64 0.61 0.63 0.65 0.62 0.57 0.56 0.57 0.62 0.65 0.65 0.63 0.66 0.68 0.73 0.82 1.00
1.38 1.24 1.21 1.26 1.23 1.17 1.14 1.12 1.19 1.20 1.35 1.39 1.34 1.30 1.28 1.24 1.22 1.13 1.01 0.87 0.78 0.74 0.76 0.72 0.67 0.61 0.56 0.53 0.55 0.56 0.55 0.53 0.49 0.47 0.48 0.48 0.51 0.53 0.53 0.53 0.60 0.73 0.91
1.26 1.19 1.18 1.24 1.19 1.13 1.09 1.04 1.09 1.13 1.22 1.29 1.23 1.18 1.15 1.19 1.14 1.08 1.02 0.92 0.80 0.72 0.71 0.70 0.66 0.60 0.49 0.48 0.46 0.43 0.45 0.48 0.49 0.45 0.40 0.37 0.37 0.41 0.42 0.44 0.51 0.62 0.73
1.44 1.45 1.47 1.44 1.32 1.19 1.10 1.08 1.12 1.17 1.21 1.26 1.18 1.17 1.14 1.10 1.05 0.91 0.86 0.86 0.81 0.69 0.63 0.60 0.56 0.56 0.52 0.47 0.40 0.40 0.46 0.51 0.52 0.49 0.46 0.38 0.32 0.39 0.42 0.43 0.47 0.51 0.53
1.73 1.74 1.68 1.54 1.40 1.27 1.21 1.16 1.12 1.18 1.24 1.21 1.13 1.05 1.04 0.99 0.93 0.89 0.81 0.75 0.74 0.68 0.65 0.62 0.56 0.51 0.47 0.45 0.43 0.42 0.42 0.50 0.51 0.48 0.47 0.48 0.47 0.44 0.44 0.42 0.45 0.49 0.55
1.69 1.59 1.52 1.43 1.35 1.25 1.19 1.10 1.07 1.05 1.07 1.04 0.98 0.89 0.89 0.94 0.95 0.91 0.85 0.76 0.71 0.67 0.62 0.60 0.54 0.52 0.47 0.42 0.39 0.40 0.42 0.46 0.42 0.37 0.38 0.38 0.42 0.42 0.43 0.44 0.48 0.51 0.56
1.36 1.36 1.33 1.26 1.20 1.13 1.03 0.96 0.97 0.97 0.94 0.92 0.91 0.80 0.78 0.85 0.90 0.87 0.80 0.69 0.65 0.63 0.55 0.53 0.54 0.53 0.50 0.41 0.36 0.37 0.36 0.40 0.36 0.35 0.35 0.34 0.31 0.31 0.32 0.38 0.52 0.61 0.58
1.15 1.17 1.23 1.23 1.10 0.94 0.87 0.89 0.88 0.87 0.76 0.75 0.80 0.80 0.77 0.77 0.77 0.77 0.78 0.69 0.62 0.61 0.58 0.56 0.57 0.55 0.50 0.42 0.36 0.35 0.34 0.34 0.36 0.37 0.37 0.35 0.28 0.25 0.26 0.33 0.45 0.51 0.49
1.00 1.01 1.06 1.02 0.91 0.83 0.85 0.87 0.84 0.75 0.70 0.75 0.83 0.81 0.77 0.67 0.67 0.77 0.80 0.72 0.64 0.60 0.59 0.59 0.59 0.54 0.50 0.43 0.38 0.37 0.34 0.32 0.33 0.35 0.34 0.32 0.29 0.25 0.26 0.29 0.35 0.37 0.46
0.83 0.86 0.85 0.84 0.85 0.85 0.88 0.88 0.80 0.71 0.73 0.78 0.82 0.81 0.74 0.70 0.70 0.74 0.76 0.72 0.65 0.58 0.55 0.55 0.56 0.51 0.44 0.39 0.34 0.33 0.31 0.30 0.30 0.31 0.30 0.30 0.31 0.32 0.38 0.39 0.37 0.43 0.60
0.73 0.73 0.74 0.73 0.78 0.77 0.75 0.73 0.65 0.64 0.74 0.80 0.78 0.77 0.78 0.76 0.70 0.65 0.61 0.60 0.56 0.51 0.48 0.47 0.47 0.42 0.38 0.31 0.25 0.26 0.28 0.28 0.30 0.31 0.35 0.43 0.47 0.48 0.50 0.54 0.59 0.63 0.67
0.70 0.72 0.73 0.72 0.69 0.68 0.64 0.61 0.61 0.67 0.75 0.74 0.70 0.69 0.73 0.70 0.64 0.54 0.46 0.43 0.38 0.29 0.30 0.31 0.30 0.30 0.27 0.23 0.23 0.25 0.27 0.24 0.25 0.29 0.41 0.57 0.62 0.63 0.61 0.60 0.61 0.64 0.63
0.63 0.67 0.64 0.64 0.63 0.59 0.57 0.59 0.60 0.59 0.65 0.65 0.60 0.57 0.59 0.57 0.50 0.45 0.39 0.32 0.23 0.19 0.15 0.14 0.15 0.16 0.19 0.17 0.15 0.18 0.21 0.21 0.24 0.32 0.52 0.62 0.65 0.67 0.61 0.57 0.54 0.53 0.53